Weather History for White Plains, NY

Change the Weather History Date:

Wednesday, April 24, 2013

  Actual Average Record
Temperature  
Mean Temperature 52 °F -  
Max Temperature 66 °F 60 °F 86 °F (2001)
Min Temperature 39 °F 40 °F 30 °F (2002)
Degree Days  
Heating Degree Days 12    
Growing Degree Days 2 (Base 50)    
Moisture  
Dew Point 42 °F    
Average Humidity 74    
Maximum Humidity 93    
Minimum Humidity 47    
Precipitation  
Precipitation 0.00 in - - ()
Sea Level Pressure  
Sea Level Pressure 29.96 in    
Wind  
Wind Speed 9 mph (SW)    
Max Wind Speed 14 mph    
Max Gust Speed 22 mph    
Visibility 8 miles    
Events      
Averages and records for this station are not official NWS values.
T = Trace of Precipitation, MM = Missing Value Source: NWS Daily Summary

Daily Weather History Graph

Daily Weather History Graph

Search for Another Location

Airport:

Trip Planner

Search our weather history database for the weather conditions in past years. The results will help you decide how hot, cold, wet, or windy it might be!

Date:

Astronomy

Apr. 24, 2013 Rise Set
Actual Time 6:01 AM EDT 7:44 PM EDT
Civil Twilight 5:32 AM EDT 8:13 PM EDT
Nautical Twilight 4:57 AM EDT 8:49 PM EDT
Astronomical Twilight 4:19 AM EDT 9:27 PM EDT
Moon 6:44 PM EDT (4/24) 5:04 AM EDT (4/24)
Length of Visible Light 14h 41m
Length of Day
13h 42m
Waxing Gibbous, 98% of the Moon is Illuminated
Apr 24
Waxing Gibbous
Apr 25
Full
May 2
Last Quarter
May 9
New
May 18
First Quarter

Hourly Weather History & Observations

Time (EDT) Temp. Windchill Dew Point Humidity Pressure Visibility Wind Dir Wind Speed Gust Speed Precip Events Conditions
12:56 AM 42.1 °F 36.6 °F 36.0 °F 79% 30.09 in 10.0 mi NNW 9.2 mph - N/A   Clear
1:56 AM 41.0 °F 37.1 °F 36.0 °F 82% 30.06 in 10.0 mi NNW 5.8 mph - N/A   Clear
2:56 AM 41.0 °F 37.1 °F 36.0 °F 82% 30.06 in 10.0 mi NW 5.8 mph - N/A   Clear
3:56 AM 41.0 °F 35.8 °F 37.0 °F 86% 30.04 in 10.0 mi NW 8.1 mph - N/A   Clear
4:56 AM 41.0 °F 35.2 °F 37.0 °F 86% 30.04 in 10.0 mi NW 9.2 mph - N/A   Clear
5:56 AM 39.9 °F 33.9 °F 36.0 °F 86% 30.05 in 10.0 mi NW 9.2 mph - N/A   Clear
6:56 AM 42.1 °F 36.6 °F 37.0 °F 82% 30.06 in 10.0 mi NW 9.2 mph - N/A   Clear
7:56 AM 46.0 °F 41.0 °F 37.9 °F 73% 30.06 in 10.0 mi NW 10.4 mph - N/A   Clear
8:56 AM 51.1 °F - 39.9 °F 66% 30.04 in 10.0 mi NW 6.9 mph - N/A   Clear
9:56 AM 55.0 °F - 41.0 °F 59% 30.02 in 10.0 mi WSW 9.2 mph - N/A   Clear
10:56 AM 57.9 °F - 41.0 °F 53% 30.01 in 10.0 mi WSW 5.8 mph - N/A   Clear
11:56 AM 60.1 °F - 42.1 °F 51% 29.98 in 10.0 mi Variable 4.6 mph - N/A   Clear
12:56 PM 64.0 °F - 44.1 °F 48% 29.94 in 10.0 mi SSW 9.2 mph - N/A   Clear
1:56 PM 66.0 °F - 45.0 °F 47% 29.91 in 10.0 mi SSE 12.7 mph 21.9 mph N/A   Clear
2:56 PM 64.0 °F - 45.0 °F 50% 29.90 in 10.0 mi South 8.1 mph 19.6 mph N/A   Clear
3:56 PM 62.1 °F - 46.9 °F 58% 29.88 in 10.0 mi South 10.4 mph 18.4 mph N/A   Clear
4:56 PM 61.0 °F - 46.9 °F 60% 29.88 in 9.0 mi South 10.4 mph 18.4 mph N/A   Clear
5:56 PM 55.9 °F - 46.9 °F 72% 29.88 in 8.0 mi SSE 12.7 mph - N/A   Clear
6:56 PM 51.1 °F - 46.0 °F 83% 29.85 in 6.0 mi SE 13.8 mph - N/A   Haze
7:56 PM 50.0 °F - 46.0 °F 86% 29.87 in 4.0 mi South 9.2 mph 17.3 mph N/A   Overcast
8:56 PM 50.0 °F - 46.9 °F 89% 29.88 in 5.0 mi SSE 9.2 mph - N/A   Mostly Cloudy
9:56 PM 50.0 °F - 46.9 °F 89% 29.88 in 5.0 mi SSE 8.1 mph - N/A   Mostly Cloudy
10:56 PM 50.0 °F - 46.9 °F 89% 29.88 in 5.0 mi SSE 6.9 mph - N/A   Mostly Cloudy
11:22 PM 48.2 °F - 46.4 °F 93% 29.86 in 3.0 mi SSE 6.9 mph - N/A   Mostly Cloudy
11:56 PM 50.0 °F - 48.0 °F 93% 29.86 in 2.5 mi South 9.2 mph - N/A   Overcast